EW7906 Weather Reports


Display with metric or nautical units.
time (UTC)temp
F
wind
direction
speed
MPH
gust
MPH
rain 1hr
in
rain 24hr
in
rain mn
in
humidity
%
barometer
mb
20260904023954 144 154 4.0 10.0 0.00 0.00 0.00 100 1012.3
20260904023454 144 164 5.0 15.0 0.00 0.00 0.00 100 1012.1
20260904022956 145 154 8.0 15.0 0.00 0.00 0.00 100 1012.0
20260904022454 145 165 2.0 11.0 0.00 0.00 0.00 100 1011.9
20260904021953 145 118 5.0 11.0 0.00 0.00 0.00 100 1011.9
20260904021725 145 163 5.0 10.0 0.00 0.00 0.00 100 1011.9
20260904020952 145 147 5.0 11.0 0.00 0.00 0.00 100 1011.8
20260904020452 145 182 2.0 11.0 0.00 0.00 0.00 100 1011.9
20260904020222 145 130 4.0 10.0 0.00 0.00 0.00 100 1011.9
20260904015451 145 170 4.0 13.0 0.00 0.00 0.00 100 1011.7
20260904014952 145 171 3.0 13.0 0.00 0.00 0.00 100 1011.6
20260904014452 145 157 6.0 10.0 0.00 0.00 0.00 100 1011.7
20260904013948 145 135 2.0 12.0 0.00 0.00 0.00 100 1011.6
20260904013449 145 160 8.0 12.0 0.00 0.00 0.00 100 1011.5
20260904012948 145 167 3.0 10.0 0.00 0.00 0.00 100 1011.4
20260904012454 145 142 4.0 12.0 0.00 0.00 0.00 100 1011.2
20260904012449 145 157 4.0 10.0 0.00 0.00 0.00 100 1011.4
20260904011447 145 147 5.0 14.0 0.00 0.00 0.00 100 1011.1
20260904010947 145 142 3.0 14.0 0.00 0.00 0.00 100 1011.1
20260904010447 145 202 4.0 11.0 0.00 0.00 0.00 100 1011.1
20260904010217 145 177 4.0 10.0 0.00 0.00 0.00 100 1011.2
20260904005716 145 154 5.0 14.0 0.00 0.00 0.00 100 1011.2
20260904004946 145 158 5.0 14.0 0.00 0.00 0.00 100 1011.1
20260904004444 145 135 3.0 12.0 0.00 0.00 0.00 100 1011.2
20260904004216 145 147 4.0 12.0 0.00 0.00 0.00 100 1011.3
20260904003443 145 158 4.0 11.0 0.00 0.00 0.00 100 1011.2
20260904002941 145 125 6.0 12.0 0.00 0.00 0.00 100 1011.2
20260904002442 145 143 4.0 13.0 0.00 0.00 0.00 100 1011.1
20260904001942 145 146 7.0 13.0 0.00 0.00 0.00 100 1011.1
20260904001442 146 165 5.0 11.0 0.00 0.00 0.00 100 1011.0
20260904000940 146 161 5.0 11.0 0.00 0.00 0.00 100 1011.0
20260904000441 146 143 4.0 11.0 0.00 0.00 0.00 100 1010.9
20260904000212 146 123 6.0 13.0 0.00 0.00 0.00 100 1010.9
20260903235438 146 140 6.0 13.0 0.00 0.00 0.00 100 1010.8
20260903234939 146 129 5.0 13.0 0.00 0.00 0.00 100 1010.8
20260903234438 146 205 6.0 13.0 0.00 0.00 0.00 100 1010.8
20260903234209 146 151 5.0 14.0 0.00 0.00 0.00 100 1010.9
20260903233443 146 174 5.0 11.0 0.00 0.00 0.00 100 1010.8
20260903233439 146 150 6.0 14.0 0.00 0.00 0.00 100 1010.8
20260903232440 146 120 6.0 13.0 0.00 0.00 0.00 100 1010.7
20260903231938 147 133 6.0 13.0 0.00 0.00 0.00 100 1010.6
20260903231436 147 130 4.0 11.0 0.00 0.00 0.00 100 1010.6
20260903231207 147 187 6.0 13.0 0.00 0.00 0.00 100 1010.5
20260903230707 147 123 4.0 13.0 0.00 0.00 0.00 100 1010.4
20260903225936 147 130 6.0 15.0 0.00 0.00 0.00 100 1010.3
20260903225435 147 61 8.0 15.0 0.00 0.00 0.00 100 1010.3
20260903224934 148 163 3.0 12.0 0.00 0.00 0.00 100 1010.2
20260903224434 148 132 6.0 15.0 0.00 0.00 0.00 100 1010.0
20260903223935 148 160 6.0 13.0 0.00 0.00 0.00 100 1009.7
20260903223931 148 118 7.0 15.0 0.00 0.00 0.00 100 1009.9
20260903223202 148 160 5.0 13.0 0.00 0.00 0.00 100 1009.7
20260903222430 148 161 5.0 14.0 0.00 0.00 0.00 100 1009.9
20260903221930 148 127 5.0 14.0 0.00 0.00 0.00 100 1009.9
20260903221430 148 150 6.0 13.0 0.00 0.00 0.00 100 1009.7
20260903220929 148 158 4.0 13.0 0.00 0.00 0.00 100 1009.7
20260903220430 148 144 5.0 12.0 0.00 0.00 0.00 100 1009.9
20260903215926 148 101 6.0 12.0 0.00 0.00 0.00 100 1009.9
20260903215424 148 158 5.0 9.0 0.00 0.00 0.00 100 1009.9
20260903215156 148 170 4.0 11.0 0.00 0.00 0.00 100 1009.9
20260903214425 148 150 8.0 11.0 0.00 0.00 0.00 100 1009.9
20260903213924 148 108 5.0 8.0 0.00 0.00 0.00 100 1010.0
20260903213655 149 106 0.0 13.0 0.00 0.00 0.00 100 1010.0
20260903212916 149 189 5.0 13.0 0.00 0.00 0.00 100 1010.2
20260903212416 149 130 5.0 11.0 0.00 0.00 0.00 100 1010.2
20260903212146 148 116 5.0 11.0 0.00 0.00 0.00 100 1010.2
20260903211412 148 167 5.0 11.0 0.00 0.00 0.00 100 1010.2
20260903210903 148 143 5.0 11.0 0.00 0.00 0.00 100 1010.2
20260903210401 149 154 1.0 10.0 0.00 0.00 0.00 100 1010.4
20260903205902 149 157 0.0 8.0 0.00 0.00 0.00 100 1010.4
20260903205401 149 115 3.0 7.0 0.00 0.00 0.00 100 1010.5
20260903204903 148 129 4.0 7.0 0.00 0.00 0.00 100 1010.5
20260903204632 148 140 2.0 8.0 0.00 0.00 0.00 100 1010.5
20260903204356 148 140 3.0 8.0 0.00 0.00 0.00 100 1010.5
20260903203330 149 129 3.0 7.0 0.00 0.00 0.00 100 1010.7
20260903202830 148 26 2.0 6.0 0.00 0.00 0.00 100 1010.8
20260903202330 149 104 4.0 6.0 0.00 0.00 0.00 100 1010.9
20260903201829 149 160 0.0 9.0 0.00 0.00 0.00 100 1010.9
20260903201329 150 123 0.0 9.0 0.00 0.00 0.00 100 1011.0
20260903200825 150 168 4.0 9.0 0.00 0.00 0.00 100 1010.9
20260903200326 150 123 0.0 6.0 0.00 0.00 0.00 100 1011.0
20260903195819 150 147 0.0 9.0 0.00 0.00 0.00 100 1011.1
20260903195316 149 189 2.0 9.0 0.00 0.00 0.00 100 1011.2
20260903194815 148 187 4.0 7.0 0.00 0.00 0.00 100 1011.2
20260903194316 148 168 0.0 11.0 0.00 0.00 0.00 100 1011.2
20260903193811 148 168 3.0 11.0 0.00 0.00 0.00 100 1011.3
20260903193303 148 109 4.0 10.0 0.00 0.00 0.00 100 1011.4
20260903192803 148 109 2.0 10.0 0.00 0.00 0.00 100 1011.4
20260903192529 149 150 4.0 7.0 0.00 0.00 0.00 100 1011.5
20260903191757 150 209 0.0 9.0 0.00 0.00 0.00 100 1011.6
20260903191257 149 184 4.0 10.0 0.00 0.00 0.00 100 1011.8
20260903190756 149 160 4.0 10.0 0.00 0.00 0.00 100 1011.8
20260903190257 150 97 2.0 9.0 0.00 0.00 0.00 100 1011.9
20260903185756 149 136 2.0 9.0 0.00 0.00 0.00 100 1012.0
20260903185250 149 168 2.0 9.0 0.00 0.00 0.00 100 1012.1
20260903184746 149 154 1.0 9.0 0.00 0.00 0.00 100 1012.1
20260903184247 149 146 0.0 8.0 0.00 0.00 0.00 100 1012.2
20260903183743 149 189 2.0 5.0 0.00 0.00 0.00 100 1012.3
20260903183243 148 189 2.0 6.0 0.00 0.00 0.00 100 1012.5
20260903182743 148 151 0.0 6.0 0.00 0.00 0.00 100 1012.6
20260903182240 148 156 4.0 6.0 0.00 0.00 0.00 100 1012.8
20260903181723 148 136 1.0 7.0 0.00 0.00 0.00 100 1012.9
20260903181210 148 147 4.0 7.0 0.00 0.00 0.00 100 1013.0
20260903180707 148 168 0.0 13.0 0.00 0.00 0.00 100 1013.0
20260903180201 149 146 4.0 14.0 0.00 0.00 0.00 100 1013.0
20260903175701 149 122 5.0 10.0 0.00 0.00 0.00 100 1012.9
20260903175201 148 164 2.0 9.0 0.00 0.00 0.00 100 1013.1
20260903174700 148 156 1.0 10.0 0.00 0.00 0.00 100 1013.1
20260903174200 149 180 3.0 10.0 0.00 0.00 0.00 100 1013.1
20260903173700 148 154 3.0 9.0 0.00 0.00 0.00 100 1013.2
20260903173200 148 188 6.0 9.0 0.00 0.00 0.00 100 1013.2
20260903172657 148 140 3.0 10.0 0.00 0.00 0.00 100 1013.2
20260903172156 148 203 6.0 11.0 0.00 0.00 0.00 100 1013.4
20260903171656 147 106 3.0 11.0 0.00 0.00 0.00 100 1013.4
20260903171155 147 178 3.0 10.0 0.00 0.00 0.00 100 1013.4
20260903170654 147 165 6.0 10.0 0.00 0.00 0.00 100 1013.4
20260903170154 147 185 5.0 9.0 0.00 0.00 0.00 100 1013.5
20260903165653 147 147 4.0 8.0 0.00 0.00 0.00 100 1013.5
20260903165153 147 133 2.0 9.0 0.00 0.00 0.00 100 1013.5
20260903164655 147 233 1.0 10.0 0.00 0.00 0.00 100 1013.5
20260903164651 147 192 5.0 10.0 0.00 0.00 0.00 100 1013.5
20260903163646 147 109 0.0 10.0 0.00 0.00 0.00 100 1013.5
20260903163242 147 185 6.0 10.0 0.00 0.00 0.00 100 1013.6
20260903162136 147 189 6.0 10.0 0.00 0.00 0.00 100 1013.5
20260903161633 147 220 0.0 11.0 0.00 0.00 0.00 100 1013.6
20260903161134 146 208 7.0 11.0 0.00 0.00 0.00 100 1013.6
20260903160634 146 208 7.0 11.0 0.00 0.00 0.00 100 1013.6
20260903160134 146 189 3.0 11.0 0.00 0.00 0.00 100 1013.5
20260903155633 146 216 7.0 11.0 0.00 0.00 0.00 100 1013.6
20260903155133 146 220 5.0 9.0 0.00 0.00 0.00 100 1013.6
20260903154633 146 168 3.0 11.0 0.00 0.00 0.00 100 1013.6
20260903154132 146 184 6.0 11.0 0.00 0.00 0.00 100 1013.8
20260903153632 146 195 5.0 10.0 0.00 0.00 0.00 100 1013.8
20260903153133 146 199 5.0 12.0 0.00 0.00 0.00 100 1013.8
20260903152633 146 208 5.0 14.0 0.00 0.00 0.00 100 1013.8
20260903152133 146 177 7.0 14.0 0.00 0.00 0.00 100 1013.8
20260903151632 146 188 5.0 11.0 0.00 0.00 0.00 100 1013.8
20260903151403 146 178 6.0 12.0 0.00 0.00 0.00 100 1013.6
20260903150631 146 184 8.0 12.0 0.00 0.00 0.00 100 1013.6
20260903150131 146 174 6.0 12.0 0.00 0.00 0.00 100 1013.6
20260903145632 146 185 5.0 12.0 0.00 0.00 0.00 100 1013.6
20260903145132 145 191 7.0 15.0 0.00 0.00 0.00 100 1013.8
20260903144631 145 170 8.0 15.0 0.00 0.00 0.00 100 1013.8
20260903144402 145 226 9.0 14.0 0.00 0.00 0.00 100 1013.8
20260903143632 145 164 4.0 13.0 0.00 0.00 0.00 100 1013.8
20260903143131 145 191 8.0 13.0 0.00 0.00 0.00 100 1013.9
20260903142630 145 195 7.0 14.0 0.00 0.00 0.00 100 1013.8
20260903142130 145 167 6.0 14.0 0.00 0.00 0.00 100 1013.8
20260903141901 145 180 6.0 11.0 0.00 0.00 0.00 100 1013.6
20260903141131 145 208 5.0 9.0 0.00 0.00 0.00 100 1013.6
20260903140630 145 222 3.0 11.0 0.00 0.00 0.00 100 1013.6
20260903140131 145 223 5.0 11.0 0.00 0.00 0.00 100 1013.6
20260903135631 145 205 4.0 14.0 0.00 0.00 0.00 100 1013.6
20260903135402 145 170 5.0 14.0 0.00 0.00 0.00 100 1013.6
20260903134629 145 203 5.0 12.0 0.00 0.00 0.00 100 1013.6
20260903134130 144 153 5.0 9.0 0.00 0.00 0.00 100 1013.8
20260903133859 144 146 4.0 10.0 0.00 0.00 0.00 100 1013.8
20260903133127 144 120 2.0 12.0 0.00 0.00 0.00 100 1013.8
20260903132856 144 180 6.0 12.0 0.00 0.00 0.00 100 1013.8
20260903132131 144 133 3.0 10.0 0.00 0.00 0.00 100 1013.9
20260903132125 144 180 6.0 11.0 0.00 0.00 0.00 100 1013.8
20260903131126 144 136 4.0 10.0 0.00 0.00 0.00 100 1013.9
20260903130626 144 143 0.0 8.0 0.00 0.00 0.00 100 1013.8
20260903130118 144 118 5.0 8.0 0.00 0.00 0.00 100 1013.8
20260903130114 144 157 2.0 9.0 0.00 0.00 0.00 100 1013.8
20260903125110 144 229 4.0 11.0 0.00 0.00 0.00 100 1013.6
20260903124610 144 184 3.0 11.0 0.00 0.00 0.00 100 1013.6
20260903124110 144 154 5.0 10.0 0.00 0.00 0.00 100 1013.6
20260903123609 144 129 1.0 6.0 0.00 0.00 0.00 100 1013.6
20260903123108 144 150 0.0 6.0 0.00 0.00 0.00 100 1013.6
20260903122607 144 206 0.0 8.0 0.00 0.00 0.00 100 1013.5
20260903122056 144 192 3.0 8.0 0.00 0.00 0.00 100 1013.5
20260903121556 144 136 0.0 8.0 0.00 0.00 0.00 100 1013.4
20260903121057 144 192 1.0 8.0 0.00 0.00 0.00 100 1013.4
20260903120557 144 123 3.0 6.0 0.00 0.00 0.00 100 1013.4
20260903120057 144 163 0.0 9.0 0.00 0.00 0.00 100 1013.4
20260903115536 144 153 4.0 9.0 0.00 0.00 0.00 100 1013.3
20260903115531 144 126 2.0 8.0 0.00 0.00 0.00 100 1013.3
20260903114756 144 143 0.0 0.0 0.00 0.00 0.00 100 1013.3
20260903114011 144 143 0.0 0.0 0.00 0.00 0.00 100 1013.2
20260903113510 144 143 0.0 0.0 0.00 0.00 0.00 100 1013.3
20260903113005 144 143 0.0 5.0 0.00 0.00 0.00 100 1013.2
20260903112456 144 143 0.0 5.0 0.00 0.00 0.00 100 1013.2
20260903111956 144 136 2.0 9.0 0.00 0.00 0.00 100 1013.1
20260903111457 144 136 1.0 9.0 0.00 0.00 0.00 100 1013.1
20260903111224 144 153 1.0 8.0 0.00 0.00 0.00 100 1013.1
20260903110442 144 222 3.0 8.0 0.00 0.00 0.00 100 1013.0
20260903105937 144 154 1.0 9.0 0.00 0.00 0.00 100 1013.0
20260903105427 144 151 3.0 9.0 0.00 0.00 0.00 100 1013.0
20260903104927 144 201 0.0 6.0 0.00 0.00 0.00 100 1013.0
20260903104416 144 158 1.0 6.0 0.00 0.00 0.00 100 1012.9
20260903103913 144 154 2.0 8.0 0.00 0.00 0.00 100 1012.9
20260903103412 144 187 1.0 10.0 0.00 0.00 0.00 100 1012.9
20260903102910 144 177 0.0 10.0 0.00 0.00 0.00 100 1012.8
20260903102629 144 180 3.0 10.0 0.00 0.00 0.00 100 1012.8
20260903101857 144 170 0.0 11.0 0.00 0.00 0.00 100 1012.6
20260903101615 144 165 3.0 11.0 0.00 0.00 0.00 100 1012.6
20260903100843 144 167 2.0 7.0 0.00 0.00 0.00 100 1012.6
20260903100337 144 178 4.0 7.0 0.00 0.00 0.00 100 1012.6
20260903095838 144 180 1.0 7.0 0.00 0.00 0.00 100 1012.6
20260903095338 144 157 2.0 6.0 0.00 0.00 0.00 100 1012.6
20260903094836 144 123 1.0 7.0 0.00 0.00 0.00 100 1012.8
20260903094323 144 144 1.0 8.0 0.00 0.00 0.00 100 1012.9
20260903093820 144 146 1.0 8.0 0.00 0.00 0.00 100 1012.9
20260903093542 144 158 2.0 9.0 0.00 0.00 0.00 100 1013.0
20260903092804 144 184 4.0 9.0 0.00 0.00 0.00 100 1013.0
20260903092800 144 208 4.0 9.0 0.00 0.00 0.00 100 1013.0
20260903091800 144 153 5.0 8.0 0.00 0.00 0.00 100 1013.1
20260903091300 144 157 1.0 8.0 0.00 0.00 0.00 100 1013.2
20260903091027 144 139 3.0 10.0 0.00 0.00 0.00 100 1013.2
20260903090257 144 160 3.0 10.0 0.00 0.00 0.00 100 1013.2
20260903085758 144 135 1.0 10.0 0.00 0.00 0.00 100 1013.2
20260903085258 144 198 4.0 10.0 0.00 0.00 0.00 100 1013.2
20260903084757 144 178 6.0 11.0 0.00 0.00 0.00 100 1013.3
20260903084256 144 157 6.0 11.0 0.00 0.00 0.00 100 1013.2
20260903083757 144 126 3.0 9.0 0.00 0.00 0.00 100 1013.2
20260903083524 144 184 3.0 9.0 0.00 0.00 0.00 100 1013.2
20260903083015 144 146 4.0 9.0 0.00 0.00 0.00 100 1013.2
20260903082238 144 189 0.0 9.0 0.00 0.00 0.00 100 1013.2
20260903081735 144 192 0.0 8.0 0.00 0.00 0.00 100 1013.2
20260903081235 144 154 5.0 8.0 0.00 0.00 0.00 100 1013.1
20260903081007 144 168 0.0 9.0 0.00 0.00 0.00 100 1013.1
20260903080229 144 168 6.0 9.0 0.00 0.00 0.00 100 1013.1
20260903075729 144 151 5.0 9.0 0.00 0.00 0.00 100 1013.2
20260903075230 144 188 2.0 6.0 0.00 0.00 0.00 100 1013.2
20260903074710 144 151 0.0 7.0 0.00 0.00 0.00 100 1013.2
20260903074156 144 168 5.0 7.0 0.00 0.00 0.00 100 1013.3
20260903073656 144 154 2.0 10.0 0.00 0.00 0.00 100 1013.3
20260903073150 144 210 4.0 10.0 0.00 0.00 0.00 100 1013.4
20260903072629 144 161 5.0 8.0 0.00 0.00 0.00 100 1013.3
20260903072128 144 150 4.0 7.0 0.00 0.00 0.00 100 1013.4
20260903071630 144 113 3.0 9.0 0.00 0.00 0.00 100 1013.4
20260903071109 144 101 0.0 9.0 0.00 0.00 0.00 100 1013.5
20260903070834 144 170 5.0 8.0 0.00 0.00 0.00 100 1013.4
20260903065601 144 158 4.0 10.0 0.00 0.00 0.00 100 1013.4
20260903065331 144 163 5.0 9.0 0.00 0.00 0.00 100 1013.4
20260903064600 144 151 4.0 9.0 0.00 0.00 0.00 100 1013.4
20260903064100 144 135 0.0 6.0 0.00 0.00 0.00 100 1013.5
20260903063553 144 189 0.0 8.0 0.00 0.00 0.00 100 1013.5
20260903063041 144 195 2.0 12.0 0.00 0.00 0.00 100 1013.5
20260903062541 144 198 0.0 12.0 0.00 0.00 0.00 100 1013.5
20260903062036 144 195 4.0 10.0 0.00 0.00 0.00 100 1013.5
20260903061535 145 163 3.0 9.0 0.00 0.00 0.00 100 1013.5
20260903061035 145 135 6.0 10.0 0.00 0.00 0.00 100 1013.5
20260903060539 145 151 6.0 9.0 0.00 0.00 0.00 100 1013.5
20260903060535 145 181 4.0 10.0 0.00 0.00 0.00 100 1013.6
20260903055534 145 142 5.0 10.0 0.00 0.00 0.00 100 1013.4
20260903055033 145 158 4.0 10.0 0.00 0.00 0.00 100 1013.4
20260903054530 145 133 6.0 10.0 0.00 0.00 0.00 100 1013.3
20260903054025 145 199 7.0 12.0 0.00 0.00 0.00 100 1013.3
20260903053525 145 150 6.0 12.0 0.00 0.00 0.00 100 1013.3
20260903053023 145 125 5.0 9.0 0.00 0.00 0.00 100 1013.3
20260903052519 145 167 2.0 14.0 0.00 0.00 0.00 100 1013.2
20260903052017 145 163 7.0 14.0 0.00 0.00 0.00 100 1013.3
20260903051746 145 151 6.0 10.0 0.00 0.00 0.00 100 1013.2
20260903051016 145 151 0.0 11.0 0.00 0.00 0.00 100 1013.2
20260903050747 145 170 5.0 11.0 0.00 0.00 0.00 100 1013.2
20260903050232 145 142 4.0 11.0 0.00 0.00 0.00 100 1013.1
20260903045501 145 178 5.0 11.0 0.00 0.00 0.00 100 1013.2
20260903045000 145 150 1.0 10.0 0.00 0.00 0.00 100 1013.1
20260903044501 145 139 3.0 10.0 0.00 0.00 0.00 100 1013.2
20260903043958 145 130 3.0 7.0 0.00 0.00 0.00 100 1013.1
20260903043456 145 150 4.0 7.0 0.00 0.00 0.00 100 1013.1
20260903043227 145 126 1.0 8.0 0.00 0.00 0.00 100 1013.1
20260903042456 145 154 2.0 8.0 0.00 0.00 0.00 100 1013.1
20260903041956 145 154 2.0 8.0 0.00 0.00 0.00 100 1013.1
20260903041443 145 160 0.0 8.0 0.00 0.00 0.00 100 1013.1
20260903040925 145 88 3.0 6.0 0.00 0.00 0.00 100 1013.1
20260903040404 145 158 0.0 5.0 0.00 0.00 0.00 100 1013.1
20260903035856 145 97 0.0 5.0 0.00 0.00 0.00 100 1013.0
20260903035350 145 151 1.0 5.0 0.00 0.00 0.00 100 1013.1
20260903034847 145 129 2.0 7.0 0.00 0.00 0.00 100 1013.0
20260903034342 145 39 2.0 8.0 0.00 0.00 0.00 100 1013.0
20260903034058 145 74 2.0 11.0 0.00 0.00 0.00 100 1013.1
20260903033328 145 97 6.0 11.0 0.00 0.00 0.00 100 1013.2
20260903032829 145 106 5.0 11.0 0.00 0.00 0.00 100 1013.0
20260903032325 146 139 3.0 11.0 0.00 0.00 0.00 100 1012.9
20260903031825 146 135 0.0 4.0 0.00 0.00 0.00 100 1012.5
20260903031326 146 111 0.0 4.0 0.00 0.00 0.00 100 1012.5
20260903030804 146 28 0.0 11.0 0.00 0.00 0.00 100 1012.3
20260903030256 146 28 0.0 11.0 0.00 0.00 0.00 100 1012.3
20260903025756 146 122 0.0 0.0 0.00 0.00 0.00 100 1012.4
20260903025518 146 122 0.0 0.0 0.00 0.00 0.00 100 1012.1
20260903024743 146 122 0.0 0.0 0.00 0.00 0.00 100 1012.2
20260903024232 146 122 0.0 0.0 0.00 0.00 0.00 100 1011.9